This is the latest recevied weather packets stored in our database for station/object GOLDWX. If no packets are shown the sender has not sent any weather packets the latest 10 day(s).
| Time | Temp. | Humidity | Pressure | Rain* | Wind** | Luminosity | Snow |
|---|---|---|---|---|---|---|---|
| 1778000290 | 15.56° C | 34% | 1011.4 hPa | 0 mm | - | - | - |
| 1777999989 | 15° C | 35% | 1011.3 hPa | 0 mm | - | - | - |
| 1777999387 | 15° C | 35% | 1011.4 hPa | 0 mm | - | - | - |
| 1777999087 | 15° C | 36% | 1011.3 hPa | 0 mm | - | - | - |
| 1777998485 | 15° C | 36% | 1011.3 hPa | 0 mm | - | - | - |
| 1777998184 | 15° C | 38% | 1011.3 hPa | 0 mm | - | - | - |
| 1777997582 | 15° C | 39% | 1011.4 hPa | 0 mm | - | - | - |
| 1777997281 | 15° C | 38% | 1011.2 hPa | 0 mm | - | - | - |
| 1777996680 | 15° C | 40% | 1011.2 hPa | 0 mm | - | - | - |
| 1777996379 | 15° C | 40% | 1011.2 hPa | 0 mm | - | - | - |
| 1777995777 | 14.44° C | 42% | 1011.2 hPa | 0 mm | - | - | - |
| 1777995477 | 14.44° C | 42% | 1011.2 hPa | 0 mm | - | - | - |
| 1777994875 | 13.89° C | 43% | 1011.2 hPa | 0 mm | - | - | - |
| 1777994574 | 13.89° C | 44% | 1011.2 hPa | 0 mm | - | - | - |
| 1777993972 | 12.78° C | 46% | 1011.1 hPa | 0 mm | - | - | - |
| 1777993671 | 12.78° C | 46% | 1011.1 hPa | 0 mm | - | - | - |
| 1777993070 | 12.22° C | 46% | 1011 hPa | 0 mm | - | - | - |
| 1777992770 | 12.22° C | 47% | 1010.9 hPa | 0 mm | - | - | - |
| 1777991866 | 11.67° C | 49% | 1010.9 hPa | 0 mm | - | - | - |
| 1777991266 | 11.11° C | 51% | 1010.9 hPa | 0 mm | - | - | - |
| 1777990964 | 11.11° C | 51% | 1011 hPa | 0 mm | - | - | - |
| 1777990362 | 10° C | 53% | 1010.8 hPa | 0 mm | - | - | - |
| 1777990061 | 10° C | 54% | 1010.7 hPa | 0 mm | - | - | - |
| 1777989460 | 8.89° C | 55% | 1010.8 hPa | 0 mm | - | - | - |
| 1777989159 | 8.33° C | 55% | 1010.8 hPa | 0 mm | - | - | - |
* Rain since midnight (hover to see other rain measurements)
** Current wind speed in m/s (hover to see current wind gust speed)